EHI
0 0 0 0 0 0 0 0 0 0 0 0 0 0 0 0 0 0 0 0 0 0 0 0 0 0 0 0 0 0 0 0 0 0 0 0 0 0 0 0 0 0 0
0 0 0 0 0 0 0 0 0 0 0 0 0 0 0 0 0 0 0 0 0 0 0 0 0 0 0 0 0 0 0 0 0 0 0 0 0 0 0 0 0 0 0
0 0 0 0 0 0 0 0 0 0 0 0 0 0 0 0 0 0 0 0 0 0 0 0 0 0 0 1 0 0 0 0 0 0 0 0 0 0 0 0 0 0 0
0 0 0 0 0 0 0 0 0 0 0 0 0 0 0 0 0 0 0 0 0 0 0 0 0 0 0 0 0 0 0 0 0 0 0 0 0 0 0 0 0 0 0
0 0 0 0 0 0 0 0 0 0 0 0 0 0 0 0 0 0 0 0 0 0 0 0 0 0 0 0 0 0 0 0 0 0 0 0 0 0 0 0 0 0 0
0 0 0 0 0 0 0 0 0 0 0 0 0 0 0 0 0 0 0 0 0 0 0 0 0 0 0 0 0 0 0 0 0 0 0 0 0 0 0 0 0 0 0
0 0 0 0 0 0 0 0 0 0 0 0 0 0 0 0 0 0 0 0 0 0 0 0 0 0 0 0 0 0 0 0 0 0 0 0 0 0 0 0 0 0 0
0 0 0 0 0 0 0 0 0 0 0 0 0 0 0 0 0 0 0 0 0 0 0 0 0 0 0 0 0 0 0 0 0 0 0 0 0 0 0 0 0 0 0
0 0 0 0 0 0 0 0 0 0 0 0 0 0 0 0 0 0 0 0 0 0 0 0 0 0 0 0 0 0 0 0 0 0 0 0 0 0 0 0 0 0 0
0 0 0 0 0 0 0 0 0 0 0 0 0 0 0 0 0 0 0 0 0 0 0 0 0 0 0 0 0 0 0 0 0 0 0 0 0 0 0 0 0 0 0
0 0 0 0 0 0 0 0 0 0 0 0 0 0 0 0 0 0 0 0 0 0 0 0 0 0 0 0 0 0 0 0 0 0 0 0 0 0 0 0 0 0 0
0 0 0 0 0 0 0 0 0 0 0 0 0 0 0 0 0 0 0 0 0 0 0 0 0 0 0 0 0 0 0 0 0 0 0 0 0 0 0 0 0 0 0
0 0 0 0 0 0 0 0 0 0 0 0 0 0 0 0 0 0 0 0 0 0 0 0 0 0 0 0 0 0 0 0 0 0 0 0 0 0 0 0 0 0 0
0 0 0 0 0 0 0 0 0 0 0 0 0 0 0 0 0 0 0 0 0 0 0 0 0 0 0 0 0 0 0 0 0 0 0 0 0 0 0 0 0 0 0
0 0 0 0 0 0 0 0 0 0 0 0 0 0 0 0 0 0 0 0 0 0 0 0 0 0 0 0 0 0 0 0 0 0 0 0 0 0 0 0 0 0 0
0 0 0 0 0 0 0 0 0 0 0 0 0 0 0 0 0 0 0 0 0 0 0 0 0 0 0 0 0 0 0 0 0 0 0 0 0 0 0 0 0 0 0
0 0 0 0 0 0 0 0 0 0 0 0 0 0 0 0 0 0 0 0 0 0 0 0 0 0 0 0 0 0 0 0 0 0 0 0 0 0 0 0 0 0 0
0 0 0 0 0 0 0 0 0 0 0 0 0 0 0 0 0 0 0 0 0 0 0 0 0 0 0 0 0 0 0 0 0 0 0 0 0 0 0 0 0 0 0
0 0 0 0 0 0 0 0 0 0 0 0 0 0 0 0 0 0 0 0 0 0 0 0 0 0 0 0 0 0 0 0 0 0 0 0 0 0 0 0 0 0 0
0 0 0 0 0 0 0 0 0 0 0 0 0 0 0 0 0 0 0 0 0 0 0 0 0 0 0 0 0 0 0 0 0 0 0 0 0 0 0 0 0 0 0
0 0 0 0 0 0 0 0 0 0 0 0 0 0 0 0 0 0 0 0 0 0 0 0 0 0 0 0 0 0 0 0 0 0 0 0 0 0 0 0 0 0 0
0 0 0 0 0 0 0 0 0 0 0 0 0 0 0 0 0 0 0 0 0 0 0 0 0 0 0 0 0 0 0 0 0 0 0 0 0 0 0 0 0 0 0
0 0 0 0 0 0 0 0 0 0 0 0 0 0 0 0 0 0 0 0 0 0 0 0 0 0 0 0 0 0 0 0 0 0 0 0 0 0 0 0 0 0 0
0 0 0 0 0 0 0 0 0 0 0 0 0 0 0 0 0 0 0 0 0 0 0 0 0 0 0 0 0 0 0 0 0 0 0 0 0 0 0 0 0 0 0
0 0 0 0 0 0 0 0 0 0 0 0 0 0 0 0 0 0 0 0 0 0 0 0 0 0 0 0 0 0 0 0 0 0 0 0 0 0 0 0 0 0 0
0 0 0 0 0 0 0 0 0 0 0 0 0 0 0 0 0 0 0 0 0 0 0 0 0 0 0 0 0 0 0 0 0 0 0 0 0 0 0 0 0 0 0
Wind_Speed
2 2 2 2 2 2 2 3 3 3 3 3 3 4 3 3 3 3 2 5 5 6 6 6 7 7 7 8 8 8 8 8 8 8 9 8 8 8 8 8 8 8 8
2 2 2 2 2 1 2 2 3 3 2 2 3 3 3 3 3 3 3 4 6 6 5 6 6 7 7 7 7 6 7 8 8 7 7 7 7 7 7 7 7 7 7
3 2 2 2 2 1 2 2 3 3 2 3 3 3 3 3 3 3 3 3 3 5 6 5 6 6 6 6 7 6 6 7 6 6 6 6 6 6 6 6 6 5 5
3 3 2 2 2 2 2 2 2 2 2 2 2 2 2 2 3 3 3 3 3 3 4 7 6 5 4 5 6 6 6 6 6 5 5 5 6 5 5 5 4 4 4
3 3 2 2 2 2 2 2 2 2 2 2 2 2 2 2 2 2 3 3 3 3 2 4 6 6 4 4 5 5 5 6 5 5 5 5 4 4 4 4 3 3 3
3 3 2 2 2 2 2 3 3 2 2 2 2 2 1 1 1 2 1 2 2 3 3 3 3 3 5 4 4 4 4 4 4 5 5 4 4 3 3 2 2 2 1
2 3 2 2 2 2 3 4 3 3 2 1 2 2 1 1 2 1 1 1 2 2 3 3 2 2 2 4 4 4 3 4 4 3 3 3 3 2 2 2 1 1 1
2 2 3 2 2 2 3 3 3 2 1 1 2 2 1 1 2 1 1 1 1 1 2 2 2 2 2 1 2 3 3 3 3 3 2 1 2 1 1 1 1 1 2
2 2 3 3 2 3 3 3 3 4 3 1 1 2 3 2 1 1 1 1 1 1 0 0 1 1 1 1 1 2 2 2 1 1 1 1 0 0 1 1 1 1 2
2 2 3 3 3 2 3 3 2 2 4 3 1 1 1 3 2 1 1 1 1 1 1 1 1 1 0 0 1 1 2 2 1 0 0 1 1 1 1 1 1 2 2
2 2 2 3 3 3 3 3 2 2 2 3 2 1 1 1 1 2 1 1 2 1 1 1 1 1 1 1 1 0 1 1 0 0 1 1 2 2 2 2 2 2 2
1 2 2 3 3 3 3 3 3 2 2 2 2 2 2 2 2 2 2 2 2 2 2 1 1 1 1 1 1 1 1 1 1 2 2 2 2 3 3 3 3 3 3
2 3 3 3 3 3 3 3 3 3 3 3 3 2 2 2 2 1 2 1 1 2 2 1 1 1 1 1 1 1 1 2 2 2 3 3 3 4 4 4 4 4 4
3 3 4 3 3 3 3 3 3 3 3 3 3 3 2 2 1 2 2 2 1 1 1 2 1 1 1 1 2 1 1 2 2 3 3 4 4 5 5 5 5 4 3
3 3 4 4 3 3 4 4 3 4 3 4 3 3 3 2 2 2 2 3 3 2 3 2 1 1 1 1 2 2 2 3 3 3 4 4 4 4 5 4 4 3 3
3 3 4 4 4 4 4 3 3 3 4 4 3 3 3 2 2 2 2 2 2 3 3 2 2 1 1 1 2 2 2 4 4 4 4 4 4 3 4 4 4 5 4
3 4 4 4 4 4 4 4 4 4 4 4 3 4 4 4 3 3 2 2 2 3 3 2 1 1 1 1 2 1 2 2 2 4 5 5 4 4 4 5 5 5 5
4 4 4 4 4 4 4 5 5 5 5 5 5 5 4 3 4 4 3 4 3 3 3 3 2 1 2 2 1 2 2 2 2 4 5 5 4 4 5 5 5 5 5
4 4 4 4 4 4 4 5 5 5 6 6 5 6 6 5 5 4 4 4 3 3 3 3 2 1 1 1 0 1 1 1 2 3 5 5 5 5 6 6 5 6 6
4 4 4 4 4 4 5 5 5 5 5 5 6 6 6 6 6 6 5 5 4 3 3 3 2 2 2 1 1 1 1 2 2 2 3 4 5 5 6 6 6 6 6
4 4 4 4 4 4 5 5 5 5 5 5 5 6 6 8 8 7 5 5 5 4 3 3 3 2 3 2 3 2 2 1 2 2 1 2 2 2 3 5 6 6 6
3 3 4 4 4 4 6 9 7 5 5 6 5 5 6 7 8 10 10 9 8 7 6 5 4 5 5 4 3 3 2 2 3 2 2 3 2 3 3 3 6 8 8
3 4 4 4 5 6 8 9 9 6 5 6 6 5 5 5 7 6 8 9 9 11 10 7 6 7 6 6 5 4 5 4 4 2 2 3 2 4 3 4 8 9 8
3 3 3 4 4 5 8 9 9 6 6 6 6 6 6 6 6 6 6 6 6 7 8 7 7 7 5 5 6 5 4 2 1 2 2 3 2 3 3 3 7 9 8
3 3 3 3 4 5 7 8 8 5 5 6 6 6 6 6 9 9 7 7 6 6 7 9 9 8 8 8 6 3 3 3 3 3 2 3 2 2 2 3 4 7 7
3 3 3 3 4 5 7 8 8 4 5 5 5 6 9 9 10 10 7 7 7 6 4 4 5 6 5 6 8 6 5 5 3 3 3 3 2 1 2 2 2 2 3
Wind_Direction
95 86 79 77 73 68 77 78 79 76 73 65 61 61 55 46 38 32 29 44 68 85 94 104 108 106 102 96 90 97 98 100 97 96 95 93 91 92 93 89 86 83 78
110 104 102 89 79 70 82 93 94 87 76 74 64 55 55 48 39 36 33 34 46 60 77 94 104 104 102 101 99 96 101 100 98 96 95 93 90 89 91 90 86 84 80
119 117 110 102 90 82 92 97 93 90 84 72 62 47 49 47 41 38 40 37 31 38 53 73 88 97 101 102 102 97 98 95 94 95 93 91 84 82 83 84 83 80 78
120 123 113 108 113 110 104 109 107 105 95 81 70 47 39 39 35 44 48 44 39 31 37 50 55 76 90 100 104 100 94 90 87 92 88 83 83 84 81 81 84 85 81
127 131 127 117 115 119 113 113 103 112 115 95 82 64 44 36 20 43 50 45 41 40 36 39 41 45 64 90 101 99 93 89 82 89 97 93 90 87 82 78 75 78 83
135 136 127 117 117 117 116 119 115 92 115 115 90 69 50 36 33 43 51 47 42 41 39 37 31 28 42 52 76 94 94 89 88 89 91 91 88 85 74 68 69 71 76
132 144 138 134 132 131 139 137 129 117 96 102 96 75 41 48 53 27 26 54 40 36 42 38 30 28 17 32 50 66 83 99 94 88 87 82 82 86 73 55 44 15 344
147 138 134 145 147 138 127 135 130 136 123 102 119 122 71 358 5 7 10 57 29 36 40 31 34 28 21 19 26 42 66 89 98 84 79 82 71 70 66 53 35 15 359
167 150 146 145 142 147 157 160 162 153 158 165 102 135 145 196 293 322 340 30 5 30 346 354 41 46 24 26 11 17 49 60 79 94 73 57 88 61 38 11 12 345 328
171 163 153 156 157 155 157 170 169 169 160 169 176 46 110 144 153 260 310 332 332 304 250 241 217 179 127 66 359 35 52 50 47 45 63 9 304 261 306 324 329 332 332
177 174 169 167 164 167 173 176 171 170 171 172 166 148 128 74 121 164 235 292 317 289 268 230 206 194 186 182 191 85 56 44 0 312 339 324 325 291 278 285 291 293 302
186 188 187 180 176 179 181 184 184 183 190 180 175 166 160 163 177 170 196 227 267 292 293 241 209 200 192 177 210 356 6 342 307 285 287 300 307 317 307 286 290 290 290
204 207 197 192 186 189 186 182 183 193 193 192 196 202 198 199 170 165 170 203 261 294 298 277 232 200 192 178 206 252 286 301 299 297 294 297 307 306 311 298 282 285 288
209 207 201 199 196 192 190 185 188 198 198 203 210 199 200 218 195 176 168 159 187 292 282 267 292 206 210 199 222 221 242 273 282 289 291 302 313 321 312 306 291 284 288
205 199 200 197 197 193 193 190 196 199 202 208 214 210 206 215 202 202 184 171 168 205 246 242 237 229 224 202 229 204 213 248 264 270 278 291 302 306 307 309 314 292 291
200 197 201 195 194 193 192 192 199 203 205 216 211 207 213 210 206 206 205 196 186 186 227 236 225 263 268 266 242 216 222 254 257 260 265 272 282 288 298 302 303 302 291
203 198 202 200 198 198 197 195 204 202 209 219 215 210 219 205 203 209 204 196 198 186 216 257 239 241 214 236 265 239 226 223 240 255 259 264 267 275 282 290 289 294 292
208 207 203 204 207 209 205 202 210 210 208 213 215 210 220 212 206 204 200 202 206 197 190 229 247 221 223 226 238 241 245 241 231 251 255 259 261 270 277 281 281 284 289
209 209 205 207 211 214 213 212 210 213 212 213 213 213 214 207 211 205 206 207 207 211 195 203 237 230 227 209 241 274 254 242 255 258 256 253 257 267 271 274 277 278 284
209 210 213 214 216 218 218 219 217 217 215 217 218 218 213 209 212 203 209 207 197 197 197 200 223 229 218 207 183 214 255 236 255 272 258 260 260 267 267 271 273 276 278
222 217 216 219 220 222 222 219 216 217 214 216 219 221 220 221 224 219 215 203 194 197 200 206 219 226 222 204 211 205 234 262 265 248 247 258 260 261 263 265 265 266 268
222 217 218 222 226 233 240 238 230 222 221 218 221 226 225 227 231 234 233 228 215 206 205 210 222 224 227 220 209 206 206 239 260 220 223 265 250 254 255 250 261 266 266
227 228 224 225 229 235 244 243 240 230 223 223 221 226 232 229 236 225 232 237 235 234 225 214 220 225 222 215 203 210 214 225 245 219 221 263 247 257 257 257 262 264 265
237 238 240 236 240 244 248 247 245 232 227 228 225 224 226 226 226 223 221 228 234 235 232 225 221 225 226 214 206 209 212 228 269 243 209 245 248 257 268 260 261 259 262
246 247 248 241 243 251 251 252 249 235 230 230 229 228 227 226 237 234 224 225 235 241 246 245 240 237 235 229 212 184 187 200 240 236 211 218 232 271 276 264 257 259 263
245 250 261 253 248 250 253 253 250 240 238 237 231 230 236 237 241 236 224 218 230 233 224 240 245 243 230 221 219 204 198 204 220 232 200 194 207 223 275 261 244 249 257